Weather History for KCTB - October, 2013

Change the Weather History Date:

Thursday, October 17, 2013

  Actual Average Record
Temperature  
Mean Temperature 39 °F 43 °F  
Max Temperature 47 °F 55 °F 77 °F (1963)
Min Temperature 30 °F 30 °F 3 °F (1930)
Degree Days  
Heating Degree Days 26 22  
Month to date heating degree days 380 331  
Since 1 July heating degree days 675 868  
Cooling Degree Days 0 0  
Month to date cooling degree days 0 0  
Year to date cooling degree days 226 161  
Moisture  
Dew Point 30 °F    
Average Humidity 73    
Maximum Humidity 96    
Minimum Humidity 49    
Precipitation  
Precipitation T in 0.02 in 0.35 in (1949)
Month to date precipitation 0.13 0.30  
Year to date precipitation 13.83 10.18  
Snow  
Snow 0.00 in - - ()
Snow Depth 0.00 in    
Sea Level Pressure  
Sea Level Pressure 30.24 in    
Wind  
Wind Speed 11 mph (NW)    
Max Wind Speed 31 mph    
Max Gust Speed 38 mph    
Visibility 10 miles    
Events      
T = Trace of Precipitation, MM = Missing Value Source: NWS Daily Summary

Daily Weather History Graph

Daily Weather History Graph

Search for Another Location

Airport or City:

Trip Planner

Search our weather history database for the weather conditions in past years. The results will help you decide how hot, cold, wet, or windy it might be!

Date:

Astronomy

Oct. 17, 2013 Rise Set
Actual Time 7:53 AM MDT 6:35 PM MDT
Civil Twilight 7:21 AM MDT 7:07 PM MDT
Nautical Twilight 6:44 AM MDT 7:43 PM MDT
Astronomical Twilight 6:08 AM MDT 8:20 PM MDT
Moon 5:54 PM MDT (10/17) 6:24 AM MDT (10/17)
Length of Visible Light 11h 46m
Length of Day
10h 42m
Waxing Gibbous, 98% of the Moon is Illuminated
Oct 17
Waxing Gibbous
Oct 18
Full
Oct 26
Last Quarter
Nov 3
New
Nov 9
First Quarter

Hourly Weather History & Observations

Time (MDT) Temp. Windchill Dew Point Humidity Pressure Visibility Wind Dir Wind Speed Gust Speed Precip Events Conditions
12:56 AM 35.1 °F 32.2 °F 30.9 °F 85% 30.25 in 10.0 mi WSW 3.5 mph - N/A   Overcast
1:56 AM 34.0 °F 29.8 °F 30.9 °F 89% 30.23 in 10.0 mi WSW 4.6 mph - N/A   Overcast
2:56 AM 34.0 °F - 30.9 °F 89% 30.22 in 10.0 mi Calm Calm - N/A   Overcast
3:56 AM 33.1 °F - 32.0 °F 96% 30.20 in 10.0 mi Calm Calm - N/A   Overcast
4:56 AM 33.1 °F - 30.9 °F 92% 30.20 in 10.0 mi Calm Calm - N/A   Overcast
5:56 AM 32.0 °F - 30.9 °F 96% 30.20 in 10.0 mi Calm Calm - N/A   Overcast
6:56 AM 33.1 °F 26.9 °F 30.9 °F 92% 30.22 in 9.0 mi NNE 6.9 mph - 0.00 in   Overcast
7:56 AM 34.0 °F 28.8 °F 32.0 °F 92% 30.23 in 10.0 mi North 5.8 mph - N/A   Overcast
8:56 AM 33.1 °F 28.7 °F 30.9 °F 92% 30.25 in 10.0 mi West 4.6 mph - 0.00 in   Mostly Cloudy
9:56 AM 39.0 °F 34.0 °F 34.0 °F 82% 30.25 in 10.0 mi WNW 6.9 mph - N/A   Overcast
10:24 AM 37.4 °F 31.4 °F 33.8 °F 87% 30.18 in 10.0 mi North 8.1 mph - N/A   Overcast
10:56 AM 39.0 °F 30.6 °F 34.0 °F 82% 30.25 in 10.0 mi NNW 15.0 mph - N/A   Overcast
11:56 AM 43.0 °F 36.4 °F 34.0 °F 71% 30.24 in 10.0 mi NNW 12.7 mph - N/A   Scattered Clouds
12:56 PM 45.0 °F 37.1 °F 30.9 °F 58% 30.22 in 10.0 mi NW 19.6 mph 26.5 mph N/A   Overcast
1:56 PM 45.0 °F 36.2 °F 30.0 °F 56% 30.21 in 10.0 mi NNW 24.2 mph 33.4 mph N/A   Overcast
2:56 PM 45.0 °F 35.6 °F 28.0 °F 52% 30.22 in 10.0 mi NNW 27.6 mph 38.0 mph N/A   Overcast
3:56 PM 46.0 °F 38.0 °F 28.0 °F 50% 30.22 in 10.0 mi NNW 21.9 mph 32.2 mph N/A   Overcast
4:56 PM 44.1 °F 35.9 °F 27.0 °F 51% 30.23 in 10.0 mi NNW 19.6 mph 32.2 mph N/A   Overcast
5:56 PM 44.1 °F 36.8 °F 28.9 °F 55% 30.25 in 10.0 mi NNW 16.1 mph 24.2 mph N/A   Overcast
7:56 PM 37.9 °F 30.5 °F 30.0 °F 73% 30.28 in 10.0 mi NW 11.5 mph - N/A   Overcast
8:56 PM 35.1 °F 26.9 °F 28.0 °F 76% 30.30 in 10.0 mi NW 11.5 mph - N/A   Clear
9:56 PM 33.1 °F 24.9 °F 26.1 °F 75% 30.31 in 10.0 mi WNW 10.4 mph - N/A   Clear
10:56 PM 30.9 °F 22.8 °F 26.1 °F 82% 30.31 in 10.0 mi WNW 9.2 mph - N/A   Scattered Clouds
11:56 PM 30.9 °F 21.7 °F 26.1 °F 82% 30.29 in 10.0 mi WNW 11.5 mph - N/A   Clear